TimeEDT,TemperatureF,Dew PointF,Humidity,Sea Level PressureIn,VisibilityMPH,Wind Direction,Wind SpeedMPH,Gust SpeedMPH,PrecipitationIn,Events,Conditions,WindDirDegrees,DateUTC
12:53 AM,75.0,70.0,84,29.93,10.0,North,8.1,-,N/A,,Partly Cloudy,360,2013-07-21 04:53:00
1:07 AM,75.2,69.8,83,29.95,10.0,North,6.9,-,N/A,,Mostly Cloudy,10,2013-07-21 05:07:00
1:42 AM,75.2,69.8,83,29.94,10.0,NNE,3.5,-,N/A,,Scattered Clouds,30,2013-07-21 05:42:00
1:53 AM,75.9,69.1,79,29.92,10.0,East,4.6,-,N/A,,Partly Cloudy,80,2013-07-21 05:53:00
2:53 AM,75.9,68.0,76,29.91,10.0,Calm,Calm,-,N/A,,Mostly Cloudy,0,2013-07-21 06:53:00
3:53 AM,73.9,69.1,85,29.91,10.0,Calm,Calm,-,N/A,,Partly Cloudy,0,2013-07-21 07:53:00
4:53 AM,73.9,69.1,85,29.91,10.0,Calm,Calm,-,N/A,,Clear,0,2013-07-21 08:53:00
5:53 AM,73.9,70.0,87,29.93,10.0,Calm,Calm,-,N/A,,Overcast,0,2013-07-21 09:53:00
6:53 AM,73.9,70.0,87,29.95,10.0,Calm,Calm,-,N/A,,Overcast,0,2013-07-21 10:53:00
7:53 AM,73.9,70.0,87,29.96,10.0,NNW,3.5,-,N/A,,Overcast,340,2013-07-21 11:53:00
8:53 AM,75.9,69.1,79,29.96,10.0,Calm,Calm,-,N/A,,Clear,0,2013-07-21 12:53:00
9:53 AM,79.0,68.0,69,29.96,10.0,Variable,3.5,-,N/A,,Clear,0,2013-07-21 13:53:00
10:53 AM,80.1,69.1,69,29.97,10.0,Calm,Calm,-,N/A,,Clear,0,2013-07-21 14:53:00
11:53 AM,80.1,70.0,71,29.97,10.0,SW,4.6,-,N/A,,Mostly Cloudy,220,2013-07-21 15:53:00
12:53 PM,81.0,69.1,67,29.97,10.0,WSW,5.8,-,N/A,,Partly Cloudy,250,2013-07-21 16:53:00
1:53 PM,84.0,70.0,63,29.95,10.0,Calm,Calm,-,N/A,,Partly Cloudy,0,2013-07-21 17:53:00
2:53 PM,84.9,68.0,57,29.93,10.0,Variable,3.5,-,N/A,,Partly Cloudy,0,2013-07-21 18:53:00
3:53 PM,87.1,66.9,51,29.91,10.0,NNE,3.5,-,N/A,,Clear,30,2013-07-21 19:53:00
4:53 PM,88.0,66.9,49,29.89,10.0,WNW,5.8,-,N/A,,Scattered Clouds,290,2013-07-21 20:53:00
5:53 PM,87.1,68.0,53,29.87,10.0,NNE,4.6,-,N/A,,Mostly Cloudy,20,2013-07-21 21:53:00
6:53 PM,87.1,66.9,51,29.86,10.0,Variable,3.5,-,N/A,,Mostly Cloudy,0,2013-07-21 22:53:00
7:35 PM,77.0,71.6,83,29.90,2.0,South,12.7,-,0.10,Rain-Thunderstorm,Thunderstorms and Rain,190,2013-07-21 23:35:00
7:40 PM,75.2,71.6,89,29.90,0.8,SSW,13.8,-,0.22,Rain-Thunderstorm,Heavy Thunderstorms and Rain,200,2013-07-21 23:40:00
7:53 PM,75.0,70.0,84,29.88,1.0,South,8.1,-,0.37,Rain,Heavy Rain,180,2013-07-21 23:53:00
8:03 PM,75.2,71.6,89,29.90,2.0,WSW,11.5,-,0.05,Rain-Thunderstorm,Heavy Thunderstorms and Rain,250,2013-07-22 00:03:00
8:08 PM,73.4,69.8,88,29.91,0.8,WSW,10.4,-,0.11,Rain-Thunderstorm,Heavy Thunderstorms and Rain,240,2013-07-22 00:08:00
8:18 PM,73.4,69.8,88,29.91,1.0,WSW,8.1,-,0.20,Rain,Heavy Rain,250,2013-07-22 00:18:00
8:27 PM,75.2,69.8,83,29.91,2.0,Calm,Calm,-,0.23,Rain-Thunderstorm,Thunderstorms and Rain,0,2013-07-22 00:27:00
8:36 PM,77.0,69.8,78,29.90,7.0,NW,9.2,-,0.23,Rain-Thunderstorm,Light Thunderstorms and Rain,310,2013-07-22 00:36:00
8:53 PM,75.0,69.1,82,29.88,9.0,NW,3.5,-,0.23,Rain-Thunderstorm,Light Rain,320,2013-07-22 00:53:00
9:28 PM,73.4,68.0,83,29.91,10.0,Calm,Calm,-,0.00,,Mostly Cloudy,0,2013-07-22 01:28:00
9:53 PM,73.0,69.1,87,29.90,9.0,Calm,Calm,-,0.00,,Scattered Clouds,0,2013-07-22 01:53:00
10:31 PM,73.4,69.8,88,29.93,8.0,WSW,4.6,-,N/A,Thunderstorm,Scattered Clouds,240,2013-07-22 02:31:00
10:46 PM,73.4,68.0,83,29.94,10.0,West,4.6,-,0.00,Rain,Light Rain,270,2013-07-22 02:46:00
10:53 PM,73.0,69.1,87,29.92,10.0,West,3.5,-,0.01,Rain,Light Rain,280,2013-07-22 02:53:00
11:53 PM,73.0,70.0,90,29.92,7.0,Calm,Calm,-,0.01,Rain,Light Rain,0,2013-07-22 03:53:00